National Oceanic Atmosphere Administration National Weather Service Headquarters National Weather Service Headquarters
NOAA logo WFO Anchorage Scalable transition graphic NWS logo
Transition from title bar to navgation bar   Aviation Weather 17 AKDT 
blankspace Home   |   Mobile   |   Social Media   |   Mesonet   |   Surface Map   |   Radar   |   Submit Storm Reports   |   News =01 GMT 

LocalForecast by City, St or Zip Code

spacer

Forecasts/Products
  Public
  Forecast Discussion
    - With Glossary
  Aviation
  Marine
  Hydrology(RFC)
  Rivers & Lakes AHPS
  Ice Desk
  TV Weather
  Fire Weather
  Avalanche
  Travel 511
  Graphical
  xml logo RSS Feeds
  Marine FTPMail

spacer

Data
  Mesonet
  Model Graphics
  Local Model
  Observations
  Marine Obs
  Satellite/Radar
  Vent Factor
  Soaring Index
  Weather Links

spacer

Climate
  PAFC Climate
  Interactive Climate
  PAFC Records
  Local
  National
  More

spacer

Outreach
  About Us
  Community Outreach
  Kids' Page
  Tour/Speaker Request
  Weather Classroom
  Social Media

spacer

Reports
  COOP Observers
  Local Storm Reports
  Spotter Page
  Submit a Storm Report

spacer

Miscellaneous
  Archived Alaska Weather Stories
  Student Career Opportunities
  Research Papers

spacer

Print Friendly/
Low Bandwidth

  Public Forecasts
  Marine Forecasts

spacer

Contact Us
  mailto pafcweb

spacer

Facebook Follow the National Weather Service in Alaska on Twitter
USA.gov is the U.S. government's official web portal to all federal, state and local government web resources and services.


 ICAO ID:   AAWU Graphics

Internet access to TAFs and METAR observations is for planning purposes only. We can not guarantee the timeliness of internet products. Before flying please get a formal pilot briefing (1-800-992-7433) and ALWAYS file a Flight Plan!Pilot briefings are provided to licensed aircraft pilots, ONLY! Others may not use the above number to obtain weather information.

Check out the Key to TAFs and METARs for help with decoding the information.

A 12 hour summary of TAFs can be found here.

PABI TAF
PABI 0204/ 10009KT 9999 SCT090 BKN150 QNH2930INS

 
      TXM10/0200Z TNM18/0115Z=


METAR PABI 010053Z 12009KT 10SM FEW020 FEW050 SCT090 SCT200 M11/M14
     A2932 RMK AO2 SLP970 T11061139=
METAR PABI 010053Z 12009KT 10SM FEW020 FEW050 SCT090 SCT200 M11/M14
     A2932=
METAR PABI 312353Z 11012KT 10SM FEW050 FEW100 SCT200 M11/M14 A2933 RMK
     SLP973 T11061139 11106 21211 57015 VIA AUTODIAL=
METAR PABI 312253Z 09005KT 10SM FEW050 FEW095 SCT200 M12/M15 A2934 RMK
     AO2 SLP978 T11171150=
METAR PABI 312253Z 09005KT 10SM FEW050 FEW095 SCT200 M12/M15 A2934=
METAR PABI 312153Z 00000KT 10SM FEW095 SCT200 M14/M16 A2936 RMK AO2
     SLP985 T11391161=
METAR PABI 312153Z 00000KT 10SM FEW095 SCT200 M14/M16 A2936=


National Weather Service
Anchorage Forecast Office
6930 Sand Lake Road
Anchorage, Ak 99502
(907) 266-5105 M-F/7-5pm
About Us
Career Opportunities
Glossary
Disclaimer
Privacy Policy
Credits
Alaska Weather Information Line:
1-800-472-0391